COSMOS 1490 (GLONASS)

Satellite information

Favourite Embed

Satellite Type and Status

PAYLOADIN ORBIT

Key statistics

Satellite COSMOS 1490 (GLONASS) at a glance.

Uptime

15309

Days in orbit

Revolutions

≈ 2.1

Per day

Orbit

MEO

Medium Earth Orbit

Inclination

64.7

Latest

Satellite identification and parameters

Extended collection of information and parameters for COSMOS 1490 (GLONASS).

Object identification

Identified? True

Debris? False

Object name: COSMOS 1490 (GLONASS)

International designator: 1983-084A

Object number (NORAD): 14258

Object ID (CCSDS): 14258

Country: COMMONWEALTH OF INDEPENDENT STATES (CIS)

Current information (Y/N): Y

RCS size: LARGE

Orbital parameters

Period: 675.728 minutes

Inclination: 64.6538 deg

SMA: 25507.917 km

Apoapsis: 19168.608 km

Periapsis: 19090.957 km

RAAN: 84.5962 deg

Eccentricy: 0.0015221

Argument of periapsis: 15.7453 deg

Mean anomaly: 109.2379 deg

Mean motion: 2.13103341 rev/day

Mean motion (dot): -0.00000025 rev/day2

B* drag term: 0.0 1/REarth

Two-line elements (TLE)

Creation date: July 9, 2025, 2:22 a.m.

Reference frame: TEME

Reference center: EARTH

Epoch: July 8, 2025, 4:16 p.m. UTC

TLE line 0: 0 COSMOS 1490 (GLONASS)

TLE line 1: 1 14258U 83084A 25189.67803068 -.00000025 00000-0 00000-0 0 9994

TLE line 2: 2 14258 64.6538 84.5962 0015221 15.7453 109.2379 2.13103341326127

Live tracking on map

Real-time ground track for satellite COSMOS 1490 (GLONASS).

In-orbit conjunctions

A list of the most updated potential collisions computed for object COSMOS 1490 (GLONASS).

Target Orbit TCA Probability of collision Miss distance Type
ARIANE 1 DEB MEO 2024-12-26 16:55:11 TBA 2690.0 (m) DEBRIS
SL-12 R/B(2) MEO 2024-08-15 23:36:59 TBA 4997.0 (m) ROCKET BODY

Associated space launch

Second generation high resolution film-return Yantar reconnaissance satellite

COSMOS 1490 (GLONASS) was lifted into orbit during the mission ‘Soyuz U | Yantar-4K1 10’, on board a Soyuz U space rocket.

The launch took place on Aug. 10, 1983, 1 p.m. from 1/5.

For more information about the launch, click the button.

Launch to space Soyuz U | Yantar-4K1 10
Soyuz U | Yantar-4K1 10

Agency: N/A

Status: Launch Successful

Launch date: Aug. 10, 1983, 1 p.m. UTC

Rocket: Soyuz U

Launch pad: 1/5

Location: Baikonur Cosmodrome, Republic of Kazakhstan

...

Latest news about this satellite

There are no fresh news available about this satellite. Check back as we update our databases every day.


Newsletter sign-up

Weekly statistics, charts and insights to help you stay on top of the space industry.